[[{"header":{"parameterUnit":"m.s-1","parameterCategory":1,"la1":30.2991,"la2":30.254,"lo1":-89.0895,"lo2":-89.0444,"dy":0.0017,"dx":0.0017,"nx":28,"ny":28,"refTime":"2025-04-13T03:00:00:Z","depth":0,"parameterNumber":2,"parameterNumberName":"U-component_of_WINDS"},"data":[0,0,0,0,0,0,0,0,0,0,0,0,0,0,0,0,0,0,0,0,0,0,0,0,0,0,0,0,0,0,0,0,0,0,0,0,0,0,0,0,0,0,0,0,0,0,0,0,0,0,0,0,0,0,0,0,0,0,2.2266,2.2267,0,2.2338,2.2339,2.234,2.2343,2.2342,2.2341,2.234,2.2415,2.2418,2.242,0,0,0,0,0,0,0,0,0,0,0,0,0,2.2131,2.2133,2.2266,2.2267,2.2268,2.2338,2.2339,2.234,2.2343,2.2342,2.2341,2.234,2.2414,2.2417,2.2421,0,0,0,0,0,0,0,0,0,0,0,0,0,2.2195,2.2134,2.2266,2.2278,2.2279,2.2338,2.2339,2.234,2.2343,2.2342,2.234,2.2339,2.2413,2.2417,2.2421,2.2473,0,0,2.2434,2.2436,0,0,0,0,0,0,0,0,2.2191,2.22,2.2275,2.2277,2.2279,2.233,2.2319,2.2385,2.2343,2.2319,2.234,2.2339,2.2388,2.2394,2.241,2.2477,2.248,2.2434,2.2437,2.2439,2.244,0,0,0,0,0,0,0,2.2187,2.2197,2.2295,2.2276,2.2279,2.2279,2.2287,2.2331,2.236,2.2321,2.2321,2.233,2.2389,2.2406,2.2412,2.2481,2.2434,2.2438,2.2441,2.2442,2.2593,2.2594,0,0,0,0,0,0,2.218,2.2193,2.2292,2.2297,2.2231,2.2283,2.2291,2.2315,2.2359,2.2365,2.2331,2.233,2.24,2.2407,2.2415,2.2478,2.2439,2.2443,2.2445,2.2591,2.2593,2.2595,0,0,0,0,0,0,2.2177,2.2189,2.2289,2.2245,2.2258,2.2287,2.2313,2.2317,2.2335,2.2367,2.2372,2.2344,2.2399,2.2409,2.2458,2.2481,2.2445,2.2448,2.259,2.2592,2.2594,2.2605,0,0,0,0,0,0,2.2173,2.2188,2.2208,2.2245,2.226,2.2332,2.2314,2.2319,2.2342,2.2341,2.238,2.2385,2.2399,2.2452,2.2463,2.2486,2.2452,2.2588,2.2591,2.2593,2.2603,2.2608,2.2612,0,0,0,0,0,2.2168,2.2209,2.2209,2.2221,2.2286,2.2333,2.2342,2.2356,2.2344,2.2364,2.2384,2.2384,2.2477,2.2457,2.2469,2.2494,2.2586,2.259,2.2593,2.2601,2.2607,2.2612,0,0,0,0,0,0,2.2173,2.2214,2.2214,2.2268,2.2297,2.2333,2.236,2.2361,2.2395,2.2393,2.2409,2.2418,2.2467,2.2486,2.2463,2.2546,2.253,2.2536,2.2532,2.2538,2.2542,2.2537,2.2455,0,0,0,0,0,2.218,2.2215,2.2249,2.2293,2.2307,2.2331,2.2352,2.236,2.2391,2.2404,2.2428,2.2458,2.2493,2.2517,2.2552,2.2606,2.2614,2.2629,2.2633,2.2636,2.2641,2.267,2.2677,2.2606,2.2606,2.2606,0,0,2.2196,2.2222,2.2243,2.2294,2.2318,2.2353,2.2341,2.238,2.2406,2.241,2.2457,2.2476,2.2511,2.2563,2.2587,2.258,2.2663,2.2641,2.2643,2.2646,2.2675,2.2681,2.2687,2.2608,2.2607,2.2607,0,0,2.2242,2.2266,2.2305,2.2328,2.2364,2.2379,2.2388,2.2424,2.2437,2.2485,2.2488,2.252,2.2581,2.2606,2.2626,2.2681,2.2681,2.2691,2.2714,2.2742,2.2748,2.2753,2.2772,2.2778,2.2696,2.2696,2.2696,0,2.2257,2.2311,2.2325,2.2363,2.2385,2.2389,2.2429,2.2451,2.2496,2.2511,2.2502,2.2579,2.2603,2.266,2.2673,2.269,2.27,2.2687,2.2746,2.2751,2.2756,2.2774,2.2781,2.2697,2.2697,2.2697,2.2697,0,2.2327,2.2364,2.2391,2.2434,2.2459,2.2498,2.2518,2.2541,2.2548,2.2564,2.2612,2.2641,2.2681,2.2695,2.2702,2.2753,2.2748,2.2742,2.2726,2.2763,2.2781,2.2788,2.2699,2.2698,2.2698,2.2698,0,0,2.2378,2.2428,2.2438,2.2457,2.2496,2.2525,2.2563,2.2602,2.2622,2.2653,2.2686,2.2737,2.2732,2.2755,2.2764,2.2789,2.283,2.2781,2.2782,2.2788,2.2887,2.2891,2.2899,2.283,2.2832,2.2833,2.2884,0,2.2429,2.2497,2.2511,2.257,2.2604,2.2608,2.2642,2.2669,2.2685,2.2717,2.2734,2.277,2.2761,2.2775,2.28,2.282,2.285,2.2816,2.2861,2.2862,2.2852,2.2908,2.2912,2.2959,2.2891,2.2892,2.2893,0,2.2496,2.2528,2.2591,2.2625,2.2639,2.2669,2.2706,2.2736,2.2767,2.2776,2.2802,2.2808,2.2848,2.283,2.2885,2.2862,2.2881,2.2893,2.2896,2.29,2.288,2.2914,2.2975,2.2982,2.2904,2.2903,2.2903,0,2.2527,2.2586,2.2631,2.2647,2.2688,2.2708,2.2726,2.2756,2.2778,2.281,2.2825,2.2861,2.288,2.2908,2.2924,2.291,2.2978,2.2961,2.2987,2.2986,2.3001,2.3,2.3065,2.3014,2.3014,2.3013,2.3013,0,2.2581,2.2619,2.2645,2.2672,2.2715,2.273,2.2772,2.2789,2.2816,2.2847,2.2853,2.2882,2.2901,2.2932,2.2945,2.2988,2.2997,2.3006,2.3009,2.3006,2.3004,2.3018,2.3015,2.3015,2.3015,2.3015,2.3014,0,2.2623,2.2641,2.269,2.2725,2.2734,2.2764,2.2793,2.282,2.2836,2.2875,2.2885,2.291,2.2947,2.2966,2.3012,2.3021,2.307,2.3071,2.3059,2.306,2.3084,2.3081,2.3161,2.3172,2.3113,2.3113,2.3114,0,2.2656,2.2685,2.2723,2.2744,2.2762,2.2796,2.2818,2.2834,2.2857,2.2895,2.2917,2.2954,2.2985,2.3045,2.3067,2.3102,2.3104,2.3129,2.3109,2.3105,2.3104,2.3102,2.3104,2.3133,2.3133,2.3134,2.3134,0,2.2713,2.2721,2.2753,2.2788,2.2815,2.2843,2.2871,2.2888,2.2909,2.2934,2.2972,2.2996,2.3043,2.308,2.3117,2.3136,2.3138,2.314,2.3148,2.3144,2.3136,2.314,2.3068,2.3138,2.3138,2.3138,2.3137,2.3137,2.2751,2.2777,2.2807,2.2843,2.2865,2.2891,2.2918,2.2937,2.2969,2.3008,2.3016,2.3056,2.3086,2.3135,2.3155,2.3186,2.3181,2.3192,2.3195,2.3197,2.3198,2.3131,2.3193,2.3193,2.3193,2.3193,2.3193,0,2.2808,2.2827,2.286,2.2899,2.2927,2.2926,2.2957,2.298,2.3016,2.3043,2.3073,2.3116,2.3152,2.3177,2.3213,2.3233,2.3236,2.3242,2.3241,2.3245,2.3201,2.3191,2.324,2.324,2.324,2.324,2.324,2.324,2.2841,2.2884,2.2895,2.295,2.2969,2.3009,2.3026,2.305,2.3072,2.312,2.315,2.3165,2.3191,2.3229,2.3262,2.3268,2.3281,2.3288,2.3294,2.3253,2.3248,2.3243,2.3234,2.3291,2.3291,2.3335,2.3336,2.3336]},{"header":{"parameterUnit":"m.s-1","parameterCategory":1,"la1":30.2991,"la2":30.254,"lo1":-89.0895,"lo2":-89.0444,"dy":0.0017,"dx":0.0017,"nx":28,"ny":28,"refTime":"2025-04-13T03:00:00:Z","depth":0,"parameterNumber":3,"parameterNumberName":"V-component_of_WINDS"},"data":[0,0,0,0,0,0,0,0,0,0,0,0,0,0,0,0,0,0,0,0,0,0,0,0,0,0,0,0,0,0,0,0,0,0,0,0,0,0,0,0,0,0,0,0,0,0,0,0,0,0,0,0,0,0,0,0,0,0,5.4201,5.4201,0,5.4241,5.4241,5.4242,5.4238,5.4237,5.4236,5.4236,5.4271,5.4272,5.4274,0,0,0,0,0,0,0,0,0,0,0,0,0,5.4115,5.4117,5.4201,5.4201,5.4202,5.4241,5.4241,5.4242,5.4238,5.4237,5.4236,5.4235,5.427,5.4272,5.4274,0,0,0,0,0,0,0,0,0,0,0,0,0,5.4153,5.4117,5.4201,5.4204,5.4205,5.4241,5.4241,5.4242,5.4238,5.4237,5.4236,5.4235,5.427,5.4272,5.4274,5.4306,0,0,5.4281,5.4282,0,0,0,0,0,0,0,0,5.4151,5.4156,5.4203,5.4204,5.4205,5.4233,5.4224,5.4263,5.4238,5.4225,5.4236,5.4235,5.4259,5.4262,5.4271,5.4308,5.431,5.4281,5.4283,5.4284,5.4284,0,0,0,0,0,0,0,5.4149,5.4155,5.4216,5.4204,5.4205,5.4202,5.4207,5.4231,5.4246,5.4226,5.4226,5.4231,5.4259,5.4269,5.4272,5.431,5.4281,5.4283,5.4285,5.4286,5.4376,5.4377,0,0,0,0,0,0,5.4146,5.4153,5.4215,5.4217,5.4176,5.4205,5.421,5.4225,5.4246,5.4249,5.4232,5.4231,5.4266,5.4269,5.4273,5.4313,5.4284,5.4286,5.4287,5.4375,5.4376,5.4377,0,0,0,0,0,0,5.4144,5.4151,5.4213,5.4185,5.4193,5.4207,5.4225,5.4226,5.4236,5.4251,5.4253,5.424,5.4265,5.427,5.4299,5.4314,5.4287,5.4289,5.4374,5.4375,5.4377,5.4392,0,0,0,0,0,0,5.4142,5.4151,5.4164,5.4185,5.4194,5.424,5.4225,5.4228,5.4241,5.424,5.4259,5.4261,5.4265,5.4295,5.4301,5.4317,5.4291,5.4372,5.4374,5.4376,5.439,5.4394,5.4397,0,0,0,0,0,5.4139,5.4166,5.4165,5.4173,5.4212,5.4241,5.4246,5.4252,5.4242,5.4255,5.4264,5.426,5.4312,5.4298,5.4305,5.4321,5.4371,5.4374,5.4376,5.4389,5.4393,5.4397,0,0,0,0,0,0,5.4143,5.4168,5.4168,5.4203,5.422,5.424,5.4257,5.4256,5.4274,5.4272,5.4277,5.4281,5.431,5.4318,5.4303,5.4354,5.434,5.4344,5.4348,5.4352,5.4355,5.4353,5.4293,0,0,0,0,0,5.4149,5.4172,5.4192,5.4221,5.423,5.4242,5.4255,5.4258,5.4275,5.4281,5.4293,5.4308,5.4327,5.434,5.4359,5.4391,5.4395,5.4406,5.4409,5.4412,5.4415,5.4433,5.4438,5.4385,5.4385,5.4385,0,0,5.416,5.4176,5.419,5.4223,5.4236,5.4259,5.4248,5.4272,5.4288,5.4284,5.4313,5.4322,5.4339,5.437,5.4384,5.4377,5.4431,5.4415,5.4417,5.4419,5.4436,5.4441,5.4446,5.4387,5.4386,5.4386,0,0,5.4192,5.4207,5.4233,5.4248,5.4269,5.4277,5.4284,5.4304,5.431,5.434,5.4338,5.4356,5.4389,5.4402,5.4413,5.4451,5.4447,5.4456,5.4474,5.4492,5.4496,5.45,5.4514,5.4519,5.4459,5.4459,5.4459,0,5.4202,5.4238,5.4246,5.4271,5.4285,5.4285,5.4311,5.4324,5.4349,5.4358,5.4351,5.4394,5.4405,5.444,5.4449,5.4458,5.4465,5.4454,5.4495,5.4499,5.4503,5.4516,5.4521,5.446,5.446,5.446,5.446,0,5.425,5.4275,5.4293,5.4321,5.4337,5.4362,5.4372,5.4387,5.4389,5.4397,5.4427,5.4441,5.4463,5.4471,5.4472,5.4506,5.4501,5.4495,5.4481,5.4509,5.4521,5.4526,5.4462,5.4461,5.4461,5.4461,0,0,5.4285,5.4318,5.4325,5.4338,5.4362,5.4381,5.4405,5.4429,5.4442,5.4459,5.448,5.4509,5.4504,5.4516,5.4518,5.4534,5.4564,5.4525,5.4526,5.4532,5.4602,5.4607,5.4613,5.4561,5.4562,5.4563,5.46,0,5.4319,5.4367,5.4375,5.4415,5.4438,5.4439,5.446,5.4477,5.4485,5.4504,5.4513,5.4534,5.4525,5.4532,5.4548,5.4557,5.4577,5.4554,5.458,5.458,5.4576,5.4619,5.4624,5.4659,5.4605,5.4606,5.4607,0,5.4366,5.4388,5.4431,5.4454,5.4464,5.4483,5.4506,5.4525,5.4543,5.4548,5.4563,5.4564,5.4588,5.4574,5.4607,5.4591,5.4602,5.4608,5.4609,5.4612,5.4595,5.4623,5.467,5.4675,5.4614,5.4614,5.4613,0,5.4388,5.4428,5.4459,5.447,5.4497,5.4511,5.4522,5.454,5.4554,5.4573,5.4582,5.4603,5.4614,5.463,5.4636,5.4625,5.4669,5.4655,5.4673,5.4673,5.4683,5.4682,5.4732,5.4689,5.4689,5.4689,5.4689,0,5.4426,5.4452,5.447,5.4489,5.4519,5.4528,5.4556,5.4566,5.4582,5.4603,5.4603,5.4622,5.4629,5.4648,5.4653,5.468,5.4684,5.4689,5.4689,5.4689,5.4688,5.4696,5.4694,5.469,5.469,5.469,5.4689,0,5.4455,5.4469,5.4503,5.4527,5.4533,5.4554,5.4573,5.4591,5.46,5.4625,5.4631,5.4645,5.4667,5.4675,5.4702,5.4705,5.4737,5.4736,5.4732,5.4732,5.475,5.4749,5.4807,5.4815,5.4766,5.4767,5.4767,0,5.4479,5.45,5.4527,5.4542,5.4554,5.4578,5.4593,5.4602,5.4617,5.4641,5.4656,5.4679,5.4698,5.4734,5.4745,5.4765,5.4765,5.4784,5.4768,5.4767,5.4766,5.4765,5.4767,5.4787,5.4787,5.4788,5.4788,0,5.452,5.4526,5.4549,5.4575,5.4593,5.4613,5.4632,5.4644,5.4655,5.4672,5.4697,5.4712,5.4741,5.4764,5.4785,5.4795,5.4793,5.4793,5.4799,5.4798,5.4796,5.4798,5.4741,5.4792,5.4791,5.4791,5.4791,5.4791,5.4547,5.4566,5.4589,5.4615,5.4631,5.4649,5.4668,5.468,5.4702,5.4728,5.4731,5.4757,5.4775,5.4804,5.4815,5.4834,5.4829,5.4836,5.4838,5.484,5.4842,5.4792,5.4838,5.4838,5.4838,5.4838,5.4838,0,5.4588,5.4603,5.4627,5.4656,5.4676,5.4675,5.4696,5.4713,5.4737,5.4755,5.4775,5.4803,5.4825,5.4838,5.4861,5.4874,5.4874,5.4879,5.4879,5.4881,5.4845,5.4839,5.4879,5.4879,5.4879,5.4879,5.4879,5.4879,5.4612,5.4645,5.4654,5.4694,5.4708,5.4736,5.4749,5.4765,5.478,5.4812,5.4832,5.4841,5.4857,5.488,5.4901,5.4904,5.4912,5.4918,5.4921,5.4887,5.4883,5.4879,5.4873,5.492,5.492,5.4955,5.4955,5.4955]}]]